Time,TemperatureF,DewpointF,PressureIn,WindDirection,WindDirectionDegrees,WindSpeedMPH,WindSpeedGustMPH,Humidity,HourlyPrecipIn,Conditions,Clouds,dailyrainin,SoftwareType,DateUTC
2017-03-22 00:02:00,54.2,40.3,30.18,NE,45,20.6,-999.0,59,0.00,,,0.00,BloomSky,2017-03-22 05:02:00,
2017-03-22 00:08:00,54.3,39.9,30.18,NE,45,8.3,-999.0,58,0.00,,,0.00,BloomSky,2017-03-22 05:08:00,
2017-03-22 00:13:00,54.1,40.6,30.18,NE,45,12.3,-999.0,60,0.00,,,0.00,BloomSky,2017-03-22 05:13:00,
2017-03-22 00:18:00,53.9,40.4,30.18,NE,45,18.0,-999.0,60,0.00,,,0.00,BloomSky,2017-03-22 05:18:00,
2017-03-22 00:23:00,53.8,40.8,30.18,NE,45,1.9,-999.0,61,0.00,,,0.00,BloomSky,2017-03-22 05:23:00,
2017-03-22 00:28:00,53.8,40.8,30.18,NE,45,6.9,-999.0,61,0.00,,,0.00,BloomSky,2017-03-22 05:28:00,
2017-03-22 00:33:00,53.6,41.4,30.18,NE,45,13.4,-999.0,63,0.00,,,0.00,BloomSky,2017-03-22 05:33:00,
2017-03-22 00:38:00,52.9,41.9,30.18,East,90,24.1,-999.0,66,0.00,,,0.00,BloomSky,2017-03-22 05:38:00,
2017-03-22 00:44:00,50.8,43.9,30.19,NE,45,21.8,-999.0,77,0.10,,,0.00,BloomSky,2017-03-22 05:44:00,
2017-03-22 00:54:00,48.7,45.3,30.19,East,90,23.5,-999.0,88,0.12,,,0.00,BloomSky,2017-03-22 05:54:00,
2017-03-22 01:04:00,48.3,45.5,30.22,NE,45,16.1,-999.0,90,0.16,,,0.16,BloomSky,2017-03-22 06:04:00,
2017-03-22 01:09:00,47.9,45.1,30.22,East,90,15.1,-999.0,90,0.16,,,0.16,BloomSky,2017-03-22 06:09:00,
2017-03-22 01:14:00,47.9,45.4,30.22,NE,45,7.8,-999.0,91,0.16,,,0.16,BloomSky,2017-03-22 06:14:00,
2017-03-22 01:20:00,47.8,45.6,30.22,NE,45,13.8,-999.0,92,0.16,,,0.16,BloomSky,2017-03-22 06:20:00,
2017-03-22 01:25:00,47.9,45.4,30.22,NE,45,17.7,-999.0,91,0.17,,,0.16,BloomSky,2017-03-22 06:25:00,
2017-03-22 01:30:00,48.0,45.4,30.22,NE,45,18.3,-999.0,91,0.17,,,0.16,BloomSky,2017-03-22 06:30:00,
2017-03-22 01:35:00,48.0,45.5,30.22,NE,45,10.5,-999.0,91,0.17,,,0.16,BloomSky,2017-03-22 06:35:00,
2017-03-22 01:40:00,48.1,45.3,30.22,NE,45,17.2,-999.0,90,0.16,,,0.16,BloomSky,2017-03-22 06:40:00,
2017-03-22 01:45:00,48.5,45.1,30.22,East,90,19.4,-999.0,88,0.06,,,0.16,BloomSky,2017-03-22 06:45:00,
2017-03-22 01:50:00,48.7,45.3,30.22,NE,45,13.5,-999.0,88,0.06,,,0.16,BloomSky,2017-03-22 06:50:00,
2017-03-22 01:56:00,48.8,44.8,30.22,NE,45,12.9,-999.0,86,0.04,,,0.16,BloomSky,2017-03-22 06:56:00,
2017-03-22 02:01:00,48.8,45.1,30.22,NE,45,14.3,-999.0,87,0.01,,,0.17,BloomSky,2017-03-22 07:01:00,
2017-03-22 02:11:00,48.9,44.9,30.22,NE,45,15.8,-999.0,86,0.01,,,0.17,BloomSky,2017-03-22 07:11:00,
2017-03-22 02:16:00,49.0,45.0,30.22,NE,45,19.1,-999.0,86,0.01,,,0.17,BloomSky,2017-03-22 07:16:00,
2017-03-22 02:21:00,48.9,44.9,30.22,NE,45,6.5,-999.0,86,0.01,,,0.17,BloomSky,2017-03-22 07:21:00,
2017-03-22 02:26:00,49.0,44.9,30.22,NE,45,14.3,-999.0,86,0.00,,,0.17,BloomSky,2017-03-22 07:26:00,
2017-03-22 02:32:00,49.0,45.0,30.22,NE,45,12.9,-999.0,86,0.00,,,0.17,BloomSky,2017-03-22 07:32:00,
2017-03-22 02:37:00,49.1,44.8,30.22,NE,45,15.7,-999.0,85,0.00,,,0.17,BloomSky,2017-03-22 07:37:00,
2017-03-22 02:42:00,49.3,44.3,30.22,NE,45,10.6,-999.0,83,0.00,,,0.17,BloomSky,2017-03-22 07:42:00,
2017-03-22 02:47:00,49.3,44.1,30.22,NE,45,11.8,-999.0,82,0.00,,,0.17,BloomSky,2017-03-22 07:47:00,
2017-03-22 02:52:00,49.4,43.8,30.22,NE,45,22.8,-999.0,81,0.00,,,0.17,BloomSky,2017-03-22 07:52:00,
2017-03-22 02:57:00,49.5,43.3,30.22,East,90,17.5,-999.0,79,0.00,,,0.17,BloomSky,2017-03-22 07:57:00,
2017-03-22 03:03:00,49.5,43.6,30.22,NE,45,12.0,-999.0,80,0.00,,,0.17,BloomSky,2017-03-22 08:03:00,
2017-03-22 03:08:00,49.4,43.2,30.22,NE,45,17.1,-999.0,79,0.00,,,0.17,BloomSky,2017-03-22 08:08:00,
2017-03-22 03:13:00,49.5,43.3,30.22,NE,45,11.1,-999.0,79,0.00,,,0.17,BloomSky,2017-03-22 08:13:00,
2017-03-22 03:18:00,49.5,42.7,30.22,NE,45,19.5,-999.0,77,0.00,,,0.17,BloomSky,2017-03-22 08:18:00,
2017-03-22 03:23:00,49.6,42.7,30.22,East,90,16.6,-999.0,77,0.00,,,0.17,BloomSky,2017-03-22 08:23:00,
2017-03-22 03:28:00,49.5,42.3,30.22,East,90,22.8,-999.0,76,0.00,,,0.17,BloomSky,2017-03-22 08:28:00,
2017-03-22 03:33:00,49.5,42.3,30.22,NE,45,21.1,-999.0,76,0.00,,,0.17,BloomSky,2017-03-22 08:33:00,
2017-03-22 03:39:00,49.5,42.3,30.22,East,90,12.8,-999.0,76,0.00,,,0.17,BloomSky,2017-03-22 08:39:00,
2017-03-22 03:44:00,49.5,42.3,30.22,NE,45,23.5,-999.0,76,0.00,,,0.17,BloomSky,2017-03-22 08:44:00,
2017-03-22 03:49:00,49.6,42.0,30.22,East,90,14.5,-999.0,75,0.00,,,0.17,BloomSky,2017-03-22 08:49:00,
2017-03-22 03:54:00,49.5,42.0,30.22,East,90,34.0,-999.0,75,0.00,,,0.17,BloomSky,2017-03-22 08:54:00,
2017-03-22 04:04:00,49.4,41.9,30.22,East,90,12.5,-999.0,75,0.00,,,0.17,BloomSky,2017-03-22 09:04:00,
2017-03-22 04:09:00,49.3,42.2,30.22,NE,45,7.7,-999.0,76,0.00,,,0.17,BloomSky,2017-03-22 09:09:00,
2017-03-22 04:15:00,49.4,42.2,30.22,East,90,12.8,-999.0,76,0.00,,,0.17,BloomSky,2017-03-22 09:15:00,
2017-03-22 04:20:00,49.3,42.2,30.22,NE,45,14.0,-999.0,76,0.00,,,0.17,BloomSky,2017-03-22 09:20:00,
2017-03-22 04:25:00,49.3,42.4,30.22,NE,45,14.3,-999.0,77,0.00,,,0.17,BloomSky,2017-03-22 09:25:00,
2017-03-22 04:30:00,49.2,42.3,30.22,East,90,9.5,-999.0,77,0.00,,,0.17,BloomSky,2017-03-22 09:30:00,
2017-03-22 04:35:00,49.0,42.5,30.22,East,90,16.8,-999.0,78,0.00,,,0.17,BloomSky,2017-03-22 09:35:00,
2017-03-22 04:40:00,48.9,42.8,30.22,East,90,4.9,-999.0,79,0.00,,,0.17,BloomSky,2017-03-22 09:40:00,
2017-03-22 04:45:00,49.0,42.8,30.22,East,90,14.3,-999.0,79,0.00,,,0.17,BloomSky,2017-03-22 09:45:00,
2017-03-22 04:51:00,49.1,42.6,30.22,East,90,22.6,-999.0,78,0.01,,,0.17,BloomSky,2017-03-22 09:51:00,
2017-03-22 04:56:00,49.1,42.6,30.22,NE,45,20.1,-999.0,78,0.01,,,0.17,BloomSky,2017-03-22 09:56:00,
2017-03-22 05:01:00,49.1,42.6,30.22,NE,45,10.3,-999.0,78,0.01,,,0.18,BloomSky,2017-03-22 10:01:00,
2017-03-22 05:06:00,49.0,42.5,30.22,NE,45,7.8,-999.0,78,0.01,,,0.18,BloomSky,2017-03-22 10:06:00,
2017-03-22 05:11:00,49.0,42.5,30.22,East,90,10.5,-999.0,78,0.01,,,0.18,BloomSky,2017-03-22 10:11:00,
2017-03-22 05:17:00,49.0,42.2,30.22,NE,45,14.0,-999.0,77,0.01,,,0.18,BloomSky,2017-03-22 10:17:00,
2017-03-22 05:27:00,48.9,42.1,30.22,NE,45,12.9,-999.0,77,0.01,,,0.18,BloomSky,2017-03-22 10:27:00,
2017-03-22 05:32:00,48.9,42.0,30.22,NE,45,15.2,-999.0,77,0.01,,,0.18,BloomSky,2017-03-22 10:32:00,
2017-03-22 05:37:00,48.8,41.3,30.22,East,90,22.9,-999.0,75,0.01,,,0.18,BloomSky,2017-03-22 10:37:00,
2017-03-22 05:42:00,48.8,41.3,30.22,East,90,7.1,-999.0,75,0.01,,,0.18,BloomSky,2017-03-22 10:42:00,
2017-03-22 05:47:00,48.7,41.9,30.22,NE,45,6.9,-999.0,77,0.01,,,0.18,BloomSky,2017-03-22 10:47:00,
2017-03-22 05:52:00,48.5,42.0,30.22,NE,45,8.6,-999.0,78,0.00,,,0.18,BloomSky,2017-03-22 10:52:00,
2017-03-22 05:57:00,48.4,41.5,30.22,NE,45,12.6,-999.0,77,0.00,,,0.18,BloomSky,2017-03-22 10:57:00,
2017-03-22 06:03:00,48.2,41.4,30.22,NE,45,7.2,-999.0,77,0.00,,,0.18,BloomSky,2017-03-22 11:03:00,
2017-03-22 06:08:00,48.1,40.9,30.22,NE,45,6.5,-999.0,76,0.00,,,0.18,BloomSky,2017-03-22 11:08:00,
2017-03-22 06:13:00,48.1,40.6,30.22,NE,45,18.3,-999.0,75,0.00,,,0.18,BloomSky,2017-03-22 11:13:00,
2017-03-22 06:18:00,47.9,40.5,30.22,NE,45,10.6,-999.0,75,0.00,,,0.18,BloomSky,2017-03-22 11:18:00,
2017-03-22 06:23:00,47.8,40.3,30.22,East,90,13.5,-999.0,75,0.00,,,0.18,BloomSky,2017-03-22 11:23:00,
2017-03-22 06:28:00,47.7,40.2,30.22,East,90,12.9,-999.0,75,0.00,,,0.18,BloomSky,2017-03-22 11:28:00,
2017-03-22 06:33:00,47.6,40.1,30.26,East,90,13.7,-999.0,75,0.00,,,0.18,BloomSky,2017-03-22 11:33:00,
2017-03-22 06:39:00,47.5,40.0,30.26,NE,45,9.2,-999.0,75,0.00,,,0.18,BloomSky,2017-03-22 11:39:00,
2017-03-22 06:44:00,47.4,40.3,30.26,East,90,17.7,-999.0,76,0.00,,,0.18,BloomSky,2017-03-22 11:44:00,
2017-03-22 06:49:00,47.3,40.5,30.26,NE,45,18.6,-999.0,77,0.00,,,0.18,BloomSky,2017-03-22 11:49:00,
2017-03-22 06:55:00,47.3,40.2,30.26,NE,45,25.4,-999.0,76,0.00,,,0.18,BloomSky,2017-03-22 11:55:00,
2017-03-22 07:01:00,47.2,40.4,30.26,East,90,14.1,-999.0,77,0.00,,,0.18,BloomSky,2017-03-22 12:01:00,
2017-03-22 07:11:00,47.2,40.4,30.26,NE,45,18.9,-999.0,77,0.00,,,0.18,BloomSky,2017-03-22 12:11:00,
2017-03-22 07:17:00,47.2,40.1,30.26,East,90,15.5,-999.0,76,0.00,,,0.18,BloomSky,2017-03-22 12:17:00,
2017-03-22 07:23:00,47.2,40.1,30.26,East,90,17.7,-999.0,76,0.00,,,0.18,BloomSky,2017-03-22 12:23:00,
2017-03-22 07:29:00,47.3,40.2,30.26,East,90,20.1,-999.0,76,0.00,,,0.18,BloomSky,2017-03-22 12:29:00,
2017-03-22 07:35:00,47.4,39.9,30.26,NE,45,16.6,-999.0,75,0.00,,,0.18,BloomSky,2017-03-22 12:35:00,
2017-03-22 07:41:00,47.5,39.7,30.26,East,90,14.0,-999.0,74,0.00,,,0.18,BloomSky,2017-03-22 12:41:00,
2017-03-22 07:48:00,47.6,39.8,30.26,East,90,10.5,-999.0,74,0.00,,,0.18,BloomSky,2017-03-22 12:48:00,
2017-03-22 07:54:00,47.7,39.5,30.26,NE,45,18.8,-999.0,73,0.00,,,0.18,BloomSky,2017-03-22 12:54:00,
2017-03-22 08:00:00,47.8,39.0,30.26,NE,45,27.7,-999.0,71,0.00,,,0.18,BloomSky,2017-03-22 13:00:00,
2017-03-22 08:05:00,47.9,38.7,30.26,East,90,16.8,-999.0,70,0.00,,,0.18,BloomSky,2017-03-22 13:05:00,
2017-03-22 08:10:00,47.9,38.7,30.26,East,90,8.1,-999.0,70,0.00,,,0.18,BloomSky,2017-03-22 13:10:00,
2017-03-22 08:15:00,48.0,38.7,30.25,SE,135,7.7,-999.0,70,0.00,,,0.18,BloomSky,2017-03-22 13:15:00,
2017-03-22 08:20:00,48.0,38.8,30.25,East,90,16.6,-999.0,70,0.00,,,0.18,BloomSky,2017-03-22 13:20:00,
2017-03-22 08:26:00,48.1,38.8,30.25,East,90,10.3,-999.0,70,0.00,,,0.18,BloomSky,2017-03-22 13:26:00,
2017-03-22 08:31:00,48.1,38.5,30.25,East,90,14.9,-999.0,69,0.00,,,0.18,BloomSky,2017-03-22 13:31:00,
2017-03-22 08:36:00,48.2,38.9,30.25,East,90,7.4,-999.0,70,0.00,,,0.18,BloomSky,2017-03-22 13:36:00,
2017-03-22 08:41:00,48.2,38.6,30.25,East,90,13.5,-999.0,69,0.00,,,0.18,BloomSky,2017-03-22 13:41:00,
2017-03-22 08:46:00,48.2,38.6,30.25,East,90,5.5,-999.0,69,0.00,,,0.18,BloomSky,2017-03-22 13:46:00,
2017-03-22 08:51:00,48.3,39.0,30.25,East,90,7.5,-999.0,70,0.00,,,0.18,BloomSky,2017-03-22 13:51:00,
2017-03-22 08:56:00,48.3,39.1,30.25,East,90,12.3,-999.0,70,0.00,,,0.18,BloomSky,2017-03-22 13:56:00,
2017-03-22 09:01:00,48.4,39.2,30.25,East,90,19.7,-999.0,70,0.00,,,0.18,BloomSky,2017-03-22 14:01:00,
2017-03-22 09:07:00,48.5,39.2,30.25,East,90,8.8,-999.0,70,0.00,,,0.18,BloomSky,2017-03-22 14:07:00,
2017-03-22 09:12:00,48.6,39.0,30.25,East,90,19.1,-999.0,69,0.00,,,0.18,BloomSky,2017-03-22 14:12:00,
2017-03-22 09:17:00,48.7,39.1,30.25,East,90,4.6,-999.0,69,0.00,,,0.18,BloomSky,2017-03-22 14:17:00,
2017-03-22 09:22:00,48.8,38.8,30.25,East,90,9.4,-999.0,68,0.00,,,0.18,BloomSky,2017-03-22 14:22:00,
2017-03-22 09:27:00,48.8,38.8,30.25,East,90,11.2,-999.0,68,0.00,,,0.18,BloomSky,2017-03-22 14:27:00,
2017-03-22 09:32:00,49.0,39.0,30.25,East,90,18.0,-999.0,68,0.00,,,0.18,BloomSky,2017-03-22 14:32:00,
2017-03-22 09:37:00,49.2,39.2,30.25,SE,135,12.6,-999.0,68,0.00,,,0.18,BloomSky,2017-03-22 14:37:00,
2017-03-22 09:43:00,49.4,39.0,30.25,East,90,17.2,-999.0,67,0.00,,,0.18,BloomSky,2017-03-22 14:43:00,
2017-03-22 09:48:00,49.4,38.6,30.25,East,90,8.0,-999.0,66,0.00,,,0.18,BloomSky,2017-03-22 14:48:00,
2017-03-22 09:53:00,49.4,38.3,30.28,SE,135,7.1,-999.0,65,0.00,,,0.18,BloomSky,2017-03-22 14:53:00,
2017-03-22 09:58:00,49.5,38.7,30.28,East,90,11.7,-999.0,66,0.00,,,0.18,BloomSky,2017-03-22 14:58:00,
2017-03-22 10:03:00,49.7,38.5,30.28,East,90,15.4,-999.0,65,0.00,,,0.18,BloomSky,2017-03-22 15:03:00,
2017-03-22 10:08:00,49.7,38.5,30.28,East,90,16.3,-999.0,65,0.00,,,0.18,BloomSky,2017-03-22 15:08:00,
2017-03-22 10:13:00,49.8,39.0,30.28,East,90,10.6,-999.0,66,0.00,,,0.18,BloomSky,2017-03-22 15:13:00,
2017-03-22 10:18:00,49.7,38.5,30.28,East,90,15.7,-999.0,65,0.00,,,0.18,BloomSky,2017-03-22 15:18:00,
2017-03-22 10:24:00,49.8,39.0,30.28,SE,135,9.4,-999.0,66,0.00,,,0.18,BloomSky,2017-03-22 15:24:00,
2017-03-22 10:29:00,50.1,39.7,30.28,East,90,9.4,-999.0,67,0.00,,,0.18,BloomSky,2017-03-22 15:29:00,
2017-03-22 10:34:00,50.4,39.2,30.28,East,90,14.1,-999.0,65,0.00,,,0.18,BloomSky,2017-03-22 15:34:00,
2017-03-22 10:39:00,50.3,39.5,30.28,East,90,7.1,-999.0,66,0.00,,,0.18,BloomSky,2017-03-22 15:39:00,
2017-03-22 10:44:00,50.4,39.2,30.28,SE,135,8.1,-999.0,65,0.00,,,0.18,BloomSky,2017-03-22 15:44:00,
2017-03-22 10:49:00,50.4,39.6,30.28,SE,135,11.2,-999.0,66,0.00,,,0.18,BloomSky,2017-03-22 15:49:00,
2017-03-22 10:54:00,50.3,39.1,30.28,East,90,18.1,-999.0,65,0.00,,,0.18,BloomSky,2017-03-22 15:54:00,
2017-03-22 11:00:00,50.3,39.5,30.28,East,90,14.1,-999.0,66,0.00,,,0.18,BloomSky,2017-03-22 16:00:00,
2017-03-22 11:05:00,50.5,39.3,30.28,East,90,20.6,-999.0,65,0.00,,,0.18,BloomSky,2017-03-22 16:05:00,
2017-03-22 11:10:00,50.5,39.3,30.28,East,90,21.4,-999.0,65,0.00,,,0.18,BloomSky,2017-03-22 16:10:00,
2017-03-22 11:15:00,50.6,39.4,30.28,East,90,21.1,-999.0,65,0.00,,,0.18,BloomSky,2017-03-22 16:15:00,
2017-03-22 11:20:00,50.8,39.5,30.28,East,90,22.1,-999.0,65,0.00,,,0.18,BloomSky,2017-03-22 16:20:00,
2017-03-22 11:25:00,50.9,39.2,30.28,East,90,19.4,-999.0,64,0.00,,,0.18,BloomSky,2017-03-22 16:25:00,
2017-03-22 11:30:00,51.0,39.3,30.28,East,90,20.0,-999.0,64,0.00,,,0.18,BloomSky,2017-03-22 16:30:00,
2017-03-22 11:35:00,51.4,39.7,30.28,SE,135,12.9,-999.0,64,0.00,,,0.18,BloomSky,2017-03-22 16:35:00,
2017-03-22 11:41:00,51.4,39.7,30.28,East,90,17.8,-999.0,64,0.00,,,0.18,BloomSky,2017-03-22 16:41:00,
2017-03-22 11:46:00,51.3,38.8,30.28,SE,135,17.1,-999.0,62,0.00,,,0.18,BloomSky,2017-03-22 16:46:00,
2017-03-22 11:51:00,51.4,38.9,30.28,East,90,15.2,-999.0,62,0.00,,,0.18,BloomSky,2017-03-22 16:51:00,
2017-03-22 11:56:00,51.5,38.6,30.28,East,90,12.6,-999.0,61,0.00,,,0.18,BloomSky,2017-03-22 16:56:00,
2017-03-22 12:01:00,51.7,38.7,30.28,SE,135,12.6,-999.0,61,0.00,,,0.18,BloomSky,2017-03-22 17:01:00,
2017-03-22 12:06:00,52.0,39.1,30.28,East,90,12.9,-999.0,61,0.00,,,0.18,BloomSky,2017-03-22 17:06:00,
2017-03-22 12:11:00,52.4,39.9,30.27,SE,135,12.8,-999.0,62,0.00,,,0.18,BloomSky,2017-03-22 17:11:00,
2017-03-22 12:16:00,52.5,39.1,30.27,SE,135,8.9,-999.0,60,0.00,,,0.18,BloomSky,2017-03-22 17:16:00,
2017-03-22 12:22:00,52.6,39.2,30.27,SE,135,8.3,-999.0,60,0.00,,,0.18,BloomSky,2017-03-22 17:22:00,
2017-03-22 12:27:00,52.8,39.9,30.27,SE,135,7.4,-999.0,61,0.00,,,0.18,BloomSky,2017-03-22 17:27:00,
2017-03-22 12:32:00,52.5,39.1,30.27,East,90,13.5,-999.0,60,0.00,,,0.18,BloomSky,2017-03-22 17:32:00,
2017-03-22 12:37:00,52.7,39.3,30.27,SE,135,10.8,-999.0,60,0.00,,,0.18,BloomSky,2017-03-22 17:37:00,
2017-03-22 12:42:00,52.4,38.5,30.28,SE,135,7.4,-999.0,59,0.00,,,0.18,BloomSky,2017-03-22 17:42:00,
2017-03-22 12:47:00,52.8,39.4,30.27,SE,135,5.1,-999.0,60,0.00,,,0.18,BloomSky,2017-03-22 17:47:00,
2017-03-22 12:52:00,52.9,39.0,30.27,East,90,9.7,-999.0,59,0.00,,,0.18,BloomSky,2017-03-22 17:52:00,
2017-03-22 12:58:00,53.0,38.7,30.27,East,90,14.5,-999.0,58,0.00,,,0.18,BloomSky,2017-03-22 17:58:00,
2017-03-22 13:03:00,53.7,39.3,30.27,East,90,9.7,-999.0,58,0.00,,,0.18,BloomSky,2017-03-22 18:03:00,
2017-03-22 13:08:00,53.5,39.2,30.27,East,90,12.0,-999.0,58,0.00,,,0.18,BloomSky,2017-03-22 18:08:00,
2017-03-22 13:13:00,54.0,39.6,30.27,SE,135,12.8,-999.0,58,0.00,,,0.18,BloomSky,2017-03-22 18:13:00,
2017-03-22 13:18:00,54.1,39.7,30.24,East,90,7.5,-999.0,58,0.00,,,0.18,BloomSky,2017-03-22 18:18:00,
2017-03-22 13:23:00,54.6,39.7,30.24,East,90,9.1,-999.0,57,0.00,,,0.18,BloomSky,2017-03-22 18:23:00,
2017-03-22 13:28:00,54.4,40.0,30.24,SE,135,5.1,-999.0,58,0.00,,,0.18,BloomSky,2017-03-22 18:28:00,
2017-03-22 13:34:00,54.7,40.3,30.24,SE,135,9.2,-999.0,58,0.00,,,0.18,BloomSky,2017-03-22 18:34:00,
2017-03-22 13:39:00,54.5,39.7,30.24,East,90,10.8,-999.0,57,0.00,,,0.18,BloomSky,2017-03-22 18:39:00,
2017-03-22 13:44:00,54.6,40.2,30.24,East,90,19.8,-999.0,58,0.00,,,0.18,BloomSky,2017-03-22 18:44:00,
2017-03-22 13:49:00,54.4,39.6,30.24,East,90,14.6,-999.0,57,0.00,,,0.18,BloomSky,2017-03-22 18:49:00,
2017-03-22 13:54:00,54.6,39.7,30.24,East,90,8.0,-999.0,57,0.00,,,0.18,BloomSky,2017-03-22 18:54:00,
2017-03-22 13:59:00,54.7,40.3,30.24,SE,135,6.8,-999.0,58,0.00,,,0.18,BloomSky,2017-03-22 18:59:00,
2017-03-22 14:04:00,54.9,40.5,30.24,East,90,9.7,-999.0,58,0.00,,,0.18,BloomSky,2017-03-22 19:04:00,
2017-03-22 14:09:00,55.6,40.7,30.24,East,90,11.4,-999.0,57,0.00,,,0.18,BloomSky,2017-03-22 19:09:00,
2017-03-22 14:15:00,56.0,40.6,30.24,NE,45,4.9,-999.0,56,0.00,,,0.18,BloomSky,2017-03-22 19:15:00,
2017-03-22 14:20:00,56.7,41.7,30.23,East,90,16.5,-999.0,57,0.00,,,0.18,BloomSky,2017-03-22 19:20:00,
2017-03-22 14:25:00,56.9,41.9,30.23,East,90,7.2,-999.0,57,0.00,,,0.18,BloomSky,2017-03-22 19:25:00,
2017-03-22 14:30:00,57.4,42.4,30.23,East,90,6.2,-999.0,57,0.00,,,0.18,BloomSky,2017-03-22 19:30:00,
2017-03-22 14:35:00,57.4,42.3,30.23,East,90,8.1,-999.0,57,0.00,,,0.18,BloomSky,2017-03-22 19:35:00,
2017-03-22 14:40:00,57.4,42.9,30.23,East,90,3.2,-999.0,58,0.00,,,0.18,BloomSky,2017-03-22 19:40:00,
2017-03-22 14:45:00,57.7,42.7,30.23,NE,45,6.5,-999.0,57,0.00,,,0.18,BloomSky,2017-03-22 19:45:00,
2017-03-22 14:51:00,57.8,42.7,30.20,SE,135,7.7,-999.0,57,0.00,,,0.18,BloomSky,2017-03-22 19:51:00,
2017-03-22 14:56:00,57.9,42.8,30.20,East,90,10.3,-999.0,57,0.00,,,0.18,BloomSky,2017-03-22 19:56:00,
2017-03-22 15:01:00,58.3,43.7,30.20,SE,135,7.7,-999.0,58,0.00,,,0.18,BloomSky,2017-03-22 20:01:00,
2017-03-22 15:06:00,58.1,43.1,30.20,SE,135,5.2,-999.0,57,0.00,,,0.18,BloomSky,2017-03-22 20:06:00,
2017-03-22 15:11:00,58.4,43.8,30.20,SE,135,7.2,-999.0,58,0.00,,,0.18,BloomSky,2017-03-22 20:11:00,
2017-03-22 15:16:00,58.4,43.8,30.20,SE,135,6.8,-999.0,58,0.00,,,0.18,BloomSky,2017-03-22 20:16:00,
2017-03-22 15:21:00,58.5,43.9,30.20,SE,135,8.1,-999.0,58,0.00,,,0.18,BloomSky,2017-03-22 20:21:00,
2017-03-22 15:26:00,58.8,44.1,30.20,East,90,9.1,-999.0,58,0.00,,,0.18,BloomSky,2017-03-22 20:26:00,
2017-03-22 15:32:00,58.7,44.1,30.20,SE,135,6.0,-999.0,58,0.00,,,0.18,BloomSky,2017-03-22 20:32:00,
2017-03-22 15:37:00,58.9,44.3,30.20,SE,135,4.9,-999.0,58,0.00,,,0.18,BloomSky,2017-03-22 20:37:00,
2017-03-22 15:42:00,59.2,44.0,30.20,East,90,9.8,-999.0,57,0.00,,,0.18,BloomSky,2017-03-22 20:42:00,
2017-03-22 15:47:00,59.5,43.9,30.20,SE,135,9.5,-999.0,56,0.00,,,0.18,BloomSky,2017-03-22 20:47:00,
2017-03-22 15:52:00,59.5,44.3,30.20,East,90,6.8,-999.0,57,0.00,,,0.18,BloomSky,2017-03-22 20:52:00,
2017-03-22 15:57:00,59.3,44.2,30.20,NE,45,8.6,-999.0,57,0.00,,,0.18,BloomSky,2017-03-22 20:57:00,
2017-03-22 16:02:00,59.5,44.4,30.20,SE,135,7.1,-999.0,57,0.00,,,0.18,BloomSky,2017-03-22 21:02:00,
2017-03-22 16:07:00,59.2,44.1,30.20,SE,135,9.8,-999.0,57,0.00,,,0.18,BloomSky,2017-03-22 21:07:00,
2017-03-22 16:13:00,58.6,44.0,30.20,SE,135,9.4,-999.0,58,0.00,,,0.18,BloomSky,2017-03-22 21:13:00,
2017-03-22 16:18:00,58.3,43.2,30.20,East,90,14.0,-999.0,57,0.00,,,0.18,BloomSky,2017-03-22 21:18:00,
2017-03-22 16:23:00,58.3,43.2,30.20,SE,135,7.4,-999.0,57,0.00,,,0.18,BloomSky,2017-03-22 21:23:00,
2017-03-22 16:28:00,58.4,44.3,30.20,SE,135,8.0,-999.0,59,0.00,,,0.18,BloomSky,2017-03-22 21:28:00,
2017-03-22 16:33:00,58.4,44.2,30.20,East,90,4.0,-999.0,59,0.00,,,0.18,BloomSky,2017-03-22 21:33:00,
2017-03-22 16:38:00,58.4,43.7,30.20,SE,135,6.6,-999.0,58,0.00,,,0.18,BloomSky,2017-03-22 21:38:00,
2017-03-22 16:43:00,58.2,44.0,30.20,SE,135,8.9,-999.0,59,0.00,,,0.18,BloomSky,2017-03-22 21:43:00,
2017-03-22 16:49:00,58.1,43.5,30.20,SE,135,9.2,-999.0,58,0.00,,,0.18,BloomSky,2017-03-22 21:49:00,
2017-03-22 16:54:00,58.1,43.5,30.17,SE,135,3.5,-999.0,58,0.00,,,0.18,BloomSky,2017-03-22 21:54:00,
2017-03-22 16:59:00,58.3,43.7,30.17,East,90,9.2,-999.0,58,0.00,,,0.18,BloomSky,2017-03-22 21:59:00,
2017-03-22 17:04:00,58.4,43.8,30.17,East,90,8.5,-999.0,58,0.00,,,0.18,BloomSky,2017-03-22 22:04:00,
2017-03-22 17:09:00,58.3,43.7,30.17,East,90,4.5,-999.0,58,0.00,,,0.18,BloomSky,2017-03-22 22:09:00,
2017-03-22 17:14:00,58.3,43.7,30.17,SE,135,5.5,-999.0,58,0.00,,,0.18,BloomSky,2017-03-22 22:14:00,
2017-03-22 17:19:00,58.3,43.2,30.17,SE,135,5.2,-999.0,57,0.00,,,0.18,BloomSky,2017-03-22 22:19:00,
2017-03-22 17:24:00,58.2,43.1,30.17,SE,135,3.1,-999.0,57,0.00,,,0.18,BloomSky,2017-03-22 22:24:00,
2017-03-22 17:30:00,57.9,43.3,30.17,East,90,6.8,-999.0,58,0.00,,,0.18,BloomSky,2017-03-22 22:30:00,
2017-03-22 17:35:00,57.7,43.1,30.17,SE,135,5.8,-999.0,58,0.00,,,0.18,BloomSky,2017-03-22 22:35:00,
2017-03-22 17:40:00,57.5,43.0,30.17,SE,135,4.2,-999.0,58,0.00,,,0.18,BloomSky,2017-03-22 22:40:00,
2017-03-22 17:45:00,57.3,42.8,30.17,East,90,6.0,-999.0,58,0.00,,,0.18,BloomSky,2017-03-22 22:45:00,
2017-03-22 17:50:00,57.1,42.6,30.17,NE,45,10.8,-999.0,58,0.00,,,0.18,BloomSky,2017-03-22 22:50:00,
2017-03-22 17:55:00,56.9,42.4,30.17,East,90,6.9,-999.0,58,0.00,,,0.18,BloomSky,2017-03-22 22:55:00,
2017-03-22 18:00:00,56.8,42.2,30.17,SE,135,7.2,-999.0,58,0.00,,,0.18,BloomSky,2017-03-22 23:00:00,
2017-03-22 18:06:00,56.6,42.6,30.17,SE,135,6.2,-999.0,59,0.00,,,0.18,BloomSky,2017-03-22 23:06:00,
2017-03-22 18:11:00,56.4,42.8,30.17,East,90,12.9,-999.0,60,0.00,,,0.18,BloomSky,2017-03-22 23:11:00,
2017-03-22 18:16:00,56.3,42.7,30.17,East,90,6.0,-999.0,60,0.00,,,0.18,BloomSky,2017-03-22 23:16:00,
2017-03-22 18:21:00,56.3,42.7,30.17,SE,135,7.4,-999.0,60,0.00,,,0.18,BloomSky,2017-03-22 23:21:00,
2017-03-22 18:26:00,56.2,42.7,30.17,SE,135,8.6,-999.0,60,0.00,,,0.18,BloomSky,2017-03-22 23:26:00,
2017-03-22 18:31:00,56.2,42.6,30.17,East,90,10.0,-999.0,60,0.00,,,0.18,BloomSky,2017-03-22 23:31:00,
2017-03-22 18:36:00,56.2,43.0,30.17,East,90,10.1,-999.0,61,0.00,,,0.18,BloomSky,2017-03-22 23:36:00,
2017-03-22 18:41:00,56.1,43.0,30.17,SE,135,8.0,-999.0,61,0.00,,,0.18,BloomSky,2017-03-22 23:41:00,
2017-03-22 18:47:00,56.0,42.9,30.17,East,90,8.0,-999.0,61,0.00,,,0.18,BloomSky,2017-03-22 23:47:00,
2017-03-22 18:52:00,56.0,42.8,30.17,East,90,8.9,-999.0,61,0.00,,,0.18,BloomSky,2017-03-22 23:52:00,
2017-03-22 18:57:00,55.9,42.8,30.17,East,90,12.6,-999.0,61,0.00,,,0.18,BloomSky,2017-03-22 23:57:00,
2017-03-22 19:03:00,55.8,43.1,30.17,East,90,12.3,-999.0,62,0.00,,,0.18,BloomSky,2017-03-23 00:03:00,
2017-03-22 19:09:00,55.8,43.1,30.14,SE,135,11.1,-999.0,62,0.00,,,0.18,BloomSky,2017-03-23 00:09:00,
2017-03-22 19:15:00,55.8,43.1,30.14,East,90,8.9,-999.0,62,0.00,,,0.18,BloomSky,2017-03-23 00:15:00,
2017-03-22 19:21:00,55.7,43.5,30.14,East,90,7.2,-999.0,63,0.00,,,0.18,BloomSky,2017-03-23 00:21:00,
2017-03-22 19:28:00,55.7,43.4,30.14,SE,135,4.6,-999.0,63,0.00,,,0.18,BloomSky,2017-03-23 00:28:00,
2017-03-22 19:34:00,55.7,43.4,30.14,NE,45,6.0,-999.0,63,0.00,,,0.18,BloomSky,2017-03-23 00:34:00,
2017-03-22 19:40:00,55.7,43.4,30.14,East,90,3.7,-999.0,63,0.00,,,0.18,BloomSky,2017-03-23 00:40:00,
2017-03-22 19:46:00,55.7,43.8,30.17,SE,135,4.8,-999.0,64,0.00,,,0.18,BloomSky,2017-03-23 00:46:00,
2017-03-22 19:52:00,55.7,43.8,30.17,SE,135,6.0,-999.0,64,0.00,,,0.18,BloomSky,2017-03-23 00:52:00,
2017-03-22 19:58:00,55.6,43.7,30.17,SE,135,0.3,-999.0,64,0.00,,,0.18,BloomSky,2017-03-23 00:58:00,
2017-03-22 20:04:00,55.5,43.7,30.18,East,90,6.0,-999.0,64,0.00,,,0.18,BloomSky,2017-03-23 01:04:00,
2017-03-22 20:09:00,55.5,44.0,30.18,East,90,6.6,-999.0,65,0.00,,,0.18,BloomSky,2017-03-23 01:09:00,
2017-03-22 20:15:00,55.4,44.0,30.18,East,90,9.5,-999.0,65,0.00,,,0.18,BloomSky,2017-03-23 01:15:00,
2017-03-22 20:20:00,55.4,43.9,30.18,SE,135,4.6,-999.0,65,0.00,,,0.18,BloomSky,2017-03-23 01:20:00,
2017-03-22 20:25:00,55.3,43.9,30.18,SE,135,8.0,-999.0,65,0.00,,,0.18,BloomSky,2017-03-23 01:25:00,
2017-03-22 20:30:00,55.3,43.9,30.18,SE,135,9.2,-999.0,65,0.00,,,0.18,BloomSky,2017-03-23 01:30:00,
2017-03-22 20:35:00,55.3,43.9,30.18,East,90,14.8,-999.0,65,0.00,,,0.18,BloomSky,2017-03-23 01:35:00,
2017-03-22 20:40:00,55.3,43.9,30.18,East,90,5.2,-999.0,65,0.00,,,0.18,BloomSky,2017-03-23 01:40:00,
2017-03-22 20:45:00,55.3,43.8,30.18,East,90,9.8,-999.0,65,0.00,,,0.18,BloomSky,2017-03-23 01:45:00,
2017-03-22 20:51:00,55.3,43.8,30.18,East,90,7.5,-999.0,65,0.00,,,0.18,BloomSky,2017-03-23 01:51:00,
2017-03-22 20:56:00,55.3,43.8,30.18,East,90,7.5,-999.0,65,0.00,,,0.18,BloomSky,2017-03-23 01:56:00,
2017-03-22 21:01:00,55.2,44.2,30.18,East,90,1.7,-999.0,66,0.00,,,0.18,BloomSky,2017-03-23 02:01:00,
2017-03-22 21:06:00,55.2,44.2,30.18,SE,135,12.0,-999.0,66,0.00,,,0.18,BloomSky,2017-03-23 02:06:00,
2017-03-22 21:11:00,55.2,44.2,30.18,East,90,7.2,-999.0,66,0.00,,,0.18,BloomSky,2017-03-23 02:11:00,
2017-03-22 21:16:00,55.2,44.2,30.18,SE,135,6.2,-999.0,66,0.00,,,0.18,BloomSky,2017-03-23 02:16:00,
2017-03-22 21:21:00,55.2,44.2,30.18,SE,135,4.6,-999.0,66,0.00,,,0.18,BloomSky,2017-03-23 02:21:00,
2017-03-22 21:27:00,55.2,44.2,30.18,SE,135,2.9,-999.0,66,0.00,,,0.18,BloomSky,2017-03-23 02:27:00,
2017-03-22 21:32:00,55.2,44.2,30.18,SE,135,6.3,-999.0,66,0.00,,,0.18,BloomSky,2017-03-23 02:32:00,
2017-03-22 21:37:00,55.2,44.2,30.18,SE,135,7.7,-999.0,66,0.00,,,0.18,BloomSky,2017-03-23 02:37:00,
2017-03-22 21:42:00,55.2,44.2,30.18,SE,135,5.1,-999.0,66,0.00,,,0.18,BloomSky,2017-03-23 02:42:00,
2017-03-22 21:47:00,55.2,44.2,30.18,SE,135,5.2,-999.0,66,0.00,,,0.18,BloomSky,2017-03-23 02:47:00,
2017-03-22 21:52:00,55.2,44.2,30.18,East,90,5.7,-999.0,66,0.00,,,0.18,BloomSky,2017-03-23 02:52:00,
2017-03-22 21:57:00,55.2,44.2,30.18,SE,135,7.2,-999.0,66,0.00,,,0.18,BloomSky,2017-03-23 02:57:00,
2017-03-22 22:03:00,55.2,44.2,30.18,East,90,7.5,-999.0,66,0.00,,,0.18,BloomSky,2017-03-23 03:03:00,